Terminal Aerodrome Forecast
Issued by NWS Sioux Falls, SD

Home | Current Version | Previous Version | Graphics & Text | Print | Product List | Glossary Off
Versions: 1 2 3 4 5 6 7 8 9 10 11 12 13 14 15 16 17 18 19 20 21 22 23 24 25 26 27 28 29 30 31 32 33 34 35 36 37 38 39 40 41 42 43 44 45 46 47

000
FTUS43 KFSD 281048 AAA
TAFSUX
TAF AMD
KSUX 281048Z 2811/2906 12007KT 5SM SHRA OVC005
     FM281600 VRB04KT P6SM BKN012
     FM282000 17006KT P6SM SCT015 BKN200=

USA.gov is the U.S. government's official web portal to all federal, state and local government web resources and services.